Miscellaneous Local Product
Issued by NWS Hastings, NE

Home | Current Version | Previous Version | Text Only | Print | Product List | Glossary Off
Versions: 1 2 3 4 5 6 7 8 9 10 11 12 13 14 15 16 17 18 19 20 21 22 23 24 25 26 27 28 29 30 31 32 33 34 35 36 37 38 39 40 41 42 43 44 45 46 47 48 49 50

881
AXUS43 KGID 051902
MISGRI

GID CWA HOURLY WEATHER ROUNDUP
NATIONAL WEATHER SERVICE HASTINGS NE
100 PM CST FRI FEB 05 2016

NOTE: "FAIR" INDICATES FEW OR NO CLOUDS BELOW 12,000 FEET WITH NO
SIGNIFICANT WEATHER AND/OR OBSTRUCTIONS TO VISIBILITY.

...SOUTH CENTRAL NEBRASKA...

CITY           SKY/WX    TMP DP  RH WIND       PRES   REMARKS
GRAND ISLAND   MOSUNNY   34  28  79 SW15      30.22F WCI  24
HASTINGS       MOSUNNY   32  28  85 SW8       30.22F WCI  25
ORD            CLOUDY    38  27  64 NW17      30.19F WCI  28
YORK           CLOUDY    32  28  86 SW14      30.24F WCI  22
AURORA         CLOUDY    32  30  92 SW16      30.22F WCI  21
LEXINGTON      SUNNY     34  24  68 W17       30.24F WCI  23
HOLDREGE       SUNNY     35  27  71 W17       30.23S WCI  25
HEBRON         CLOUDY    31  28  88 SW9       30.28F WCI  23

...NEBRASKA PANHANDLE...

CITY           SKY/WX    TMP DP  RH WIND       PRES   REMARKS
CHADRON        SUNNY     36  24  62 W16       30.24F WCI  26
ALLIANCE       SUNNY     32  24  72 W17       30.22F WCI  21
SCOTTSBLUFF    SUNNY     32  18  56 W17       30.27F WCI  21
SIDNEY         SUNNY     30  20  66 NW20      30.27F WCI  17

...WESTERN AND NORTH CENTRAL NEBRASKA...

CITY           SKY/WX    TMP DP  RH WIND       PRES   REMARKS
VALENTINE      CLOUDY    34  27  75 NW14G23   30.20S WCI  25
AINSWORTH      CLOUDY    36  28  71 NW17      30.18F WCI  26
ONEILL         CLOUDY    38  29  70 W12       30.17F WCI  30
BROKEN BOW     CLOUDY    36  27  69 NW9       30.20F WCI  29
IMPERIAL       SUNNY     35  20  54 NW20G29   30.26F WCI  24
NORTH PLATTE   CLOUDY    35  25  66 NW15      30.24F WCI  25
MCCOOK         SUNNY     36  25  64 NW17      30.27F WCI  26

...EASTERN NEBRASKA...

CITY           SKY/WX    TMP DP  RH WIND       PRES   REMARKS
NORFOLK        CLOUDY    30  26  85 S13       30.19F WCI  20
SO SIOUX CITY  CLOUDY    29  23  78 S15       30.25F HAZE    WCI  18
TEKAMAH        LGT SNOW  28  25  88 S14       30.27F FOG     WCI  17
COLUMBUS       CLOUDY    30  21  69 SW10      30.23F WCI  21
ALBION         CLOUDY    32  27  83 S6        30.20F WCI  26
OMAHA EPPLEY   LGT SNOW  28  25  88 S14       30.29F VSB 3/4 WCI  17
OFFUTT AFB     LGT SNOW  28  27  93 SE10      30.30F FOG     WCI  19
MILLARD        LGT SNOW  29  26  87 S7        30.30F WCI  22
LINCOLN        LGT SNOW  30  26  85 S10       30.28F FOG     WCI  21
NEBRASKA CITY  LGT SNOW  30  25  83 S13       30.30F WCI  20
BEATRICE       LGT SNOW  31  26  81 SW12      30.28F WCI  21
FALLS CITY     CLOUDY    33  22  63 S9        30.34F WCI  25

...NORTHERN KANSAS...

CITY           SKY/WX    TMP DP  RH WIND       PRES   REMARKS
GOODLAND       SUNNY     34  22  61 NW16      30.30F WCI  24
HILL CITY        N/A     37  28  70 SW12      30.29F WCI  29
NORTON         CLEAR     37  23  56 W17G24    30.25  WCI  28
PHILLIPSBURG   MOSUNNY   37  27  65 SW9       30.27F WCI  31
BELOIT         PTSUNNY   37  25  60 SW10      30.29F WCI  30
HAYS           PTSUNNY   34  19  55 W5        30.31F WCI  30
RUSSELL        PTSUNNY   32  22  66 SW7       30.30F WCI  26
CONCORDIA      MOSUNNY   35  24  64 SW12      30.29F WCI  27
SALINA         PTSUNNY   43  23  45 SW9       30.32F
TOPEKA         PTSUNNY   39  22  50 S7        30.35F WCI  34



USA.gov is the U.S. government's official web portal to all federal, state and local government web resources and services.